| time (UTC) | temp C | wind direction | speed KPH | gust KPH | rain 1hr cm | rain 24hr cm | rain mn cm | humidity % | barometer mb |
| 20260906191545 | 23 | 81 | 4.8 | 16.1 | 0.00 | 0.00 | 0.00 | 65 | 1021.0 |
| 20260906190043 | 23 | 74 | 4.8 | 14.5 | 0.00 | 0.00 | 0.00 | 64 | 1020.9 |
| 20260906184548 | 23 | 68 | 9.7 | 19.3 | 0.00 | 0.00 | 0.00 | 65 | 1020.9 |
| 20260906183046 | 23 | 65 | 6.4 | 16.1 | 0.00 | 0.00 | 0.00 | 64 | 1021.0 |
| 20260906181545 | 23 | 51 | 8.0 | 16.1 | 0.00 | 0.00 | 0.00 | 64 | 1020.9 |
| 20260906180058 | 23 | 75 | 4.8 | 14.5 | 0.00 | 0.00 | 0.00 | 64 | 1020.9 |
| 20260906174541 | 23 | 115 | 6.4 | 16.1 | 0.00 | 0.00 | 0.00 | 64 | 1021.1 |
| 20260906173041 | 23 | 68 | 6.4 | 14.5 | 0.00 | 0.00 | 0.00 | 64 | 1021.1 |
| 20260906171543 | 23 | 114 | 8.0 | 16.1 | 0.00 | 0.00 | 0.00 | 66 | 1021.3 |
| 20260906170042 | 23 | 46 | 4.8 | 16.1 | 0.00 | 0.00 | 0.00 | 66 | 1021.2 |
| 20260906164549 | 23 | 72 | 4.8 | 14.5 | 0.00 | 0.00 | 0.00 | 66 | 1021.4 |
| 20260906163044 | 23 | 152 | 6.4 | 11.3 | 0.00 | 0.00 | 0.00 | 68 | 1021.6 |
| 20260906161547 | 22 | 89 | 8.0 | 22.5 | 0.00 | 0.00 | 0.00 | 70 | 1021.4 |
| 20260906160042 | 22 | 129 | 4.8 | 16.1 | 0.00 | 0.00 | 0.00 | 71 | 1021.3 |
| 20260906154554 | 23 | 132 | 6.4 | 11.3 | 0.00 | 0.00 | 0.00 | 71 | 1021.3 |
| 20260906153043 | 22 | 82 | 6.4 | 14.5 | 0.00 | 0.00 | 0.00 | 74 | 1021.3 |
| 20260906151542 | 22 | 85 | 6.4 | 12.9 | 0.00 | 0.00 | 0.00 | 73 | 1021.2 |
| 20260906150055 | 22 | 118 | 6.4 | 12.9 | 0.00 | 0.00 | 0.00 | 74 | 1021.1 |
| 20260906144543 | 22 | 82 | 4.8 | 12.9 | 0.00 | 0.00 | 0.00 | 73 | 1021.0 |
| 20260906143055 | 22 | 87 | 4.8 | 12.9 | 0.00 | 0.00 | 0.00 | 73 | 1020.8 |
| 20260906141557 | 22 | 132 | 4.8 | 9.7 | 0.00 | 0.00 | 0.00 | 73 | 1021.1 |
| 20260906140044 | 22 | 153 | 4.8 | 9.7 | 0.00 | 0.00 | 0.00 | 74 | 1021.0 |
| 20260906134542 | 21 | 70 | 4.8 | 11.3 | 0.00 | 0.00 | 0.00 | 76 | 1021.0 |
| 20260906133042 | 21 | 57 | 4.8 | 12.9 | 0.00 | 0.00 | 0.00 | 77 | 1020.9 |
| 20260906131547 | 21 | 83 | 0.0 | 9.7 | 0.00 | 0.00 | 0.00 | 81 | 1020.7 |
| 20260906130050 | 20 | 63 | 0.0 | 4.8 | 0.00 | 0.00 | 0.00 | 84 | 1020.4 |
| 20260906124542 | 20 | 0 | 0.0 | 0.0 | 0.00 | 0.00 | 0.00 | 87 | 1020.2 |
| 20260906123044 | 18 | 0 | 0.0 | 0.0 | 0.00 | 0.00 | 0.00 | 86 | 1020.2 |
| 20260906121545 | 17 | 0 | 0.0 | 0.0 | 0.00 | 0.00 | 0.00 | 86 | 1020.1 |
| 20260906120043 | 17 | 0 | 0.0 | 0.0 | 0.00 | 0.00 | 0.00 | 87 | 1019.8 |
| 20260906114556 | 17 | 0 | 0.0 | 0.0 | 0.00 | 0.00 | 0.00 | 87 | 1019.7 |
| 20260906113043 | 17 | 0 | 0.0 | 0.0 | 0.00 | 0.00 | 0.00 | 87 | 1019.5 |
| 20260906111549 | 17 | 0 | 0.0 | 0.0 | 0.00 | 0.00 | 0.00 | 88 | 1019.3 |
| 20260906110041 | 18 | 0 | 0.0 | 0.0 | 0.00 | 0.00 | 0.00 | 88 | 1019.2 |
| 20260906104547 | 18 | 0 | 0.0 | 0.0 | 0.00 | 0.00 | 0.00 | 87 | 1019.2 |
| 20260906103049 | 18 | 0 | 0.0 | 0.0 | 0.00 | 0.00 | 0.00 | 87 | 1019.2 |
| 20260906101542 | 18 | 0 | 0.0 | 0.0 | 0.00 | 0.00 | 0.00 | 88 | 1019.1 |
| 20260906100057 | 18 | 0 | 0.0 | 0.0 | 0.00 | 0.00 | 0.00 | 88 | 1019.1 |
| 20260906094551 | 18 | 0 | 0.0 | 0.0 | 0.00 | 0.00 | 0.00 | 88 | 1019.0 |
| 20260906093043 | 18 | 0 | 0.0 | 0.0 | 0.00 | 0.00 | 0.00 | 88 | 1018.9 |
| 20260906091543 | 18 | 0 | 0.0 | 0.0 | 0.00 | 0.00 | 0.00 | 88 | 1018.6 |
| 20260906090044 | 18 | 0 | 0.0 | 0.0 | 0.00 | 0.00 | 0.00 | 87 | 1018.9 |
| 20260906084547 | 18 | 0 | 0.0 | 0.0 | 0.00 | 0.00 | 0.00 | 87 | 1018.9 |
| 20260906083043 | 18 | 0 | 0.0 | 0.0 | 0.00 | 0.00 | 0.00 | 87 | 1018.8 |
| 20260906081543 | 18 | 0 | 0.0 | 0.0 | 0.00 | 0.00 | 0.00 | 87 | 1018.7 |
| 20260906080203 | 18 | 0 | 0.0 | 0.0 | 0.00 | 0.00 | 0.00 | 87 | 1018.8 |
| 20260906074551 | 18 | 0 | 0.0 | 0.0 | 0.00 | 0.00 | 0.00 | 87 | 1018.6 |
| 20260906073044 | 18 | 0 | 0.0 | 0.0 | 0.00 | 0.00 | 0.00 | 87 | 1018.5 |
| 20260906071543 | 18 | 0 | 0.0 | 0.0 | 0.00 | 0.00 | 0.00 | 87 | 1018.6 |
| 20260906070047 | 18 | 0 | 0.0 | 0.0 | 0.00 | 0.00 | 0.00 | 87 | 1018.6 |
| 20260906064543 | 18 | 0 | 0.0 | 0.0 | 0.00 | 0.00 | 0.00 | 87 | 1018.6 |
| 20260906063046 | 18 | 0 | 0.0 | 1.6 | 0.00 | 0.00 | 0.00 | 86 | 1018.8 |
| 20260906061542 | 18 | 0 | 0.0 | 0.0 | 0.00 | 0.00 | 0.00 | 86 | 1018.6 |
| 20260906060047 | 18 | 0 | 0.0 | 0.0 | 0.00 | 0.00 | 0.00 | 86 | 1018.6 |
| 20260906054600 | 18 | 0 | 0.0 | 0.0 | 0.00 | 0.00 | 0.00 | 87 | 1018.6 |
| 20260906053048 | 18 | 0 | 0.0 | 0.0 | 0.00 | 0.00 | 0.00 | 87 | 1018.6 |
| 20260906051544 | 18 | 0 | 0.0 | 1.6 | 0.00 | 0.00 | 0.00 | 87 | 1018.4 |
| 20260906050045 | 18 | 0 | 0.0 | 1.6 | 0.00 | 0.00 | 0.00 | 88 | 1018.3 |
| 20260906044549 | 18 | 0 | 0.0 | 1.6 | 0.00 | 0.00 | 0.00 | 88 | 1018.3 |
| 20260906043045 | 18 | 32 | 0.0 | 4.8 | 0.00 | 0.00 | 0.00 | 88 | 1018.1 |
| 20260906041542 | 18 | 0 | 0.0 | 4.8 | 0.00 | 0.00 | 0.00 | 88 | 1017.9 |
| 20260906034552 | 19 | 61 | 1.6 | 8.0 | 0.00 | 0.00 | 0.00 | 88 | 1018.0 |
| 20260906033045 | 19 | 50 | 1.6 | 11.3 | 0.00 | 0.00 | 0.00 | 88 | 1018.0 |
| 20260906031605 | 19 | 51 | 4.8 | 9.7 | 0.00 | 0.00 | 0.00 | 88 | 1018.0 |
| 20260906030050 | 20 | 62 | 3.2 | 8.0 | 0.00 | 0.00 | 0.00 | 87 | 1018.0 |
| 20260906024557 | 20 | 53 | 3.2 | 11.3 | 0.00 | 0.00 | 0.00 | 87 | 1017.9 |
| 20260906023045 | 20 | 48 | 4.8 | 12.9 | 0.00 | 0.00 | 0.00 | 86 | 1017.7 |
| 20260906021550 | 20 | 49 | 3.2 | 8.0 | 0.00 | 0.00 | 0.00 | 86 | 1017.7 |
| 20260906020047 | 20 | 16 | 4.8 | 12.9 | 0.00 | 0.00 | 0.00 | 86 | 1017.7 |
| 20260906014543 | 20 | 31 | 3.2 | 8.0 | 0.00 | 0.00 | 0.00 | 85 | 1017.9 |
| 20260906013041 | 20 | 34 | 1.6 | 8.0 | 0.00 | 0.00 | 0.00 | 85 | 1017.7 |
| 20260906011542 | 20 | 23 | 3.2 | 8.0 | 0.00 | 0.00 | 0.00 | 85 | 1017.7 |
| 20260906010052 | 20 | 36 | 3.2 | 9.7 | 0.00 | 0.00 | 0.00 | 84 | 1017.7 |
| 20260906004544 | 21 | 48 | 4.8 | 9.7 | 0.00 | 0.00 | 0.00 | 84 | 1017.5 |
| 20260906003045 | 21 | 37 | 6.4 | 12.9 | 0.00 | 0.00 | 0.00 | 85 | 1017.5 |
| 20260906001551 | 21 | 20 | 4.8 | 12.9 | 0.00 | 0.00 | 0.00 | 85 | 1017.5 |
| 20260906000055 | 21 | 21 | 4.8 | 12.9 | 0.00 | 0.00 | 0.00 | 86 | 1017.6 |
| 20260905234550 | 21 | 37 | 4.8 | 14.5 | 0.00 | 0.00 | 0.00 | 86 | 1017.6 |
| 20260905233042 | 21 | 339 | 4.8 | 12.9 | 0.00 | 0.00 | 0.00 | 87 | 1017.6 |
| 20260905231542 | 21 | 49 | 8.0 | 17.7 | 0.00 | 0.00 | 0.00 | 88 | 1017.6 |
| 20260905230047 | 21 | 18 | 8.0 | 16.1 | 0.00 | 0.00 | 0.00 | 87 | 1017.6 |
| 20260905224543 | 21 | 57 | 4.8 | 19.3 | 0.00 | 0.00 | 0.00 | 87 | 1017.7 |
| 20260905223042 | 21 | 28 | 8.0 | 16.1 | 0.00 | 0.00 | 0.00 | 86 | 1017.4 |
| 20260905221543 | 21 | 37 | 4.8 | 20.9 | 0.00 | 0.00 | 0.00 | 86 | 1017.2 |
| 20260905220045 | 21 | 39 | 6.4 | 16.1 | 0.00 | 0.00 | 0.00 | 86 | 1017.2 |
| 20260905214543 | 21 | 40 | 8.0 | 22.5 | 0.00 | 0.00 | 0.00 | 85 | 1017.0 |
| 20260905213053 | 21 | 53 | 8.0 | 17.7 | 0.00 | 0.00 | 0.00 | 85 | 1016.7 |
| 20260905211600 | 22 | 27 | 11.3 | 19.3 | 0.00 | 0.00 | 0.00 | 85 | 1016.9 |
| 20260905210053 | 22 | 86 | 9.7 | 17.7 | 0.00 | 0.00 | 0.00 | 84 | 1016.7 |
| 20260905204550 | 22 | 351 | 9.7 | 20.9 | 0.00 | 0.00 | 0.00 | 83 | 1016.7 |
| 20260905203042 | 23 | 47 | 11.3 | 20.9 | 0.00 | 0.00 | 0.00 | 82 | 1016.6 |
| 20260905201550 | 23 | 49 | 9.7 | 24.1 | 0.00 | 0.00 | 0.00 | 82 | 1016.7 |
| 20260905200042 | 23 | 29 | 9.7 | 20.9 | 0.00 | 0.00 | 0.00 | 82 | 1016.6 |
| 20260905194546 | 23 | 27 | 9.7 | 16.1 | 0.00 | 0.00 | 0.00 | 83 | 1016.7 |
| 20260905193041 | 23 | 30 | 8.0 | 17.7 | 0.00 | 0.00 | 0.00 | 84 | 1016.6 |